TimeEDT,TemperatureF,Dew PointF,Humidity,Sea Level PressureIn,VisibilityMPH,Wind Direction,Wind SpeedMPH,Gust SpeedMPH,PrecipitationIn,Events,Conditions,WindDirDegrees,DateUTC
12:15 AM,77.0,71.6,83,29.89,10.0,NNE,6.9,-,N/A,,Mostly Cloudy,30,2012-10-25 04:15:00
12:35 AM,77.0,71.6,83,29.89,10.0,North,4.6,-,N/A,,Mostly Cloudy,10,2012-10-25 04:35:00
12:55 AM,77.0,73.4,89,29.88,10.0,East,8.1,-,N/A,,Mostly Cloudy,90,2012-10-25 04:55:00
1:15 AM,77.0,71.6,83,29.88,10.0,East,13.8,21.9,N/A,,Mostly Cloudy,90,2012-10-25 05:15:00
1:35 AM,77.0,69.8,78,29.87,10.0,East,12.7,-,N/A,,Mostly Cloudy,100,2012-10-25 05:35:00
1:55 AM,78.8,71.6,78,29.87,10.0,East,11.5,-,N/A,,Overcast,100,2012-10-25 05:55:00
2:15 AM,78.8,69.8,74,29.86,10.0,East,13.8,19.6,N/A,,Mostly Cloudy,90,2012-10-25 06:15:00
2:35 AM,78.8,71.6,78,29.85,10.0,East,13.8,20.7,N/A,,Scattered Clouds,80,2012-10-25 06:35:00
2:55 AM,78.8,71.6,78,29.84,10.0,East,15.0,23.0,N/A,,Mostly Cloudy,80,2012-10-25 06:55:00
3:35 AM,77.0,71.6,83,29.83,7.0,NE,12.7,-,N/A,,Scattered Clouds,50,2012-10-25 07:35:00
3:55 AM,77.0,69.8,78,29.83,7.0,ENE,15.0,24.2,N/A,,Mostly Cloudy,70,2012-10-25 07:55:00
4:15 AM,78.8,71.6,78,29.82,10.0,ENE,13.8,18.4,N/A,,Scattered Clouds,70,2012-10-25 08:15:00
4:35 AM,77.0,71.6,83,29.81,7.0,NE,12.7,-,N/A,,Scattered Clouds,50,2012-10-25 08:35:00
4:55 AM,78.8,71.6,78,29.81,7.0,East,15.0,20.7,N/A,,Scattered Clouds,80,2012-10-25 08:55:00
5:15 AM,78.8,69.8,74,29.81,10.0,ENE,19.6,23.0,N/A,,Scattered Clouds,70,2012-10-25 09:15:00
5:35 AM,80.6,69.8,70,29.81,10.0,East,20.7,25.3,N/A,,Clear,80,2012-10-25 09:35:00
5:55 AM,80.6,69.8,70,29.82,10.0,ENE,16.1,21.9,N/A,,Scattered Clouds,70,2012-10-25 09:55:00
6:15 AM,80.6,69.8,70,29.82,10.0,ENE,16.1,25.3,N/A,,Scattered Clouds,70,2012-10-25 10:15:00
6:47 AM,80.6,71.6,74,29.82,7.0,ENE,16.1,23.0,N/A,,Mostly Cloudy,70,2012-10-25 10:47:00
7:47 AM,80.6,73.4,79,29.83,5.0,ENE,20.7,29.9,N/A,,Mostly Cloudy,70,2012-10-25 11:47:00
8:47 AM,80.6,71.6,74,29.84,5.0,ENE,16.1,27.6,N/A,,Mostly Cloudy,70,2012-10-25 12:47:00
9:47 AM,80.6,71.6,74,29.85,5.0,ENE,20.7,28.8,N/A,,Mostly Cloudy,60,2012-10-25 13:47:00
10:47 AM,82.4,71.6,70,29.85,5.0,ENE,20.7,29.9,N/A,Rain,Rain Showers,70,2012-10-25 14:47:00
11:47 AM,82.4,71.6,70,29.84,5.0,ENE,20.7,29.9,N/A,,Mostly Cloudy,60,2012-10-25 15:47:00
12:47 PM,82.4,71.6,70,29.81,5.0,NE,20.7,29.9,N/A,Rain,Rain Showers,50,2012-10-25 16:47:00
1:47 PM,82.4,71.6,70,29.78,4.0,ENE,17.3,27.6,N/A,Rain,Rain Showers,60,2012-10-25 17:47:00
2:47 PM,82.4,71.6,70,29.76,4.0,ENE,18.4,25.3,N/A,Rain,Rain Showers,60,2012-10-25 18:47:00
3:55 PM,73.4,64.4,73,29.76,4.0,East,11.5,25.3,N/A,Rain,Rain Showers,80,2012-10-25 19:55:00
4:47 PM,77.0,71.6,83,29.76,4.0,NNE,20.7,27.6,N/A,Rain,Rain Showers,30,2012-10-25 20:47:00
5:50 PM,77.0,71.6,83,29.76,4.0,NNE,20.7,28.8,N/A,Rain,Rain Showers,30,2012-10-25 21:50:00
6:47 PM,75.2,68.0,78,29.77,4.0,NE,18.4,26.5,N/A,Rain,Rain Showers,40,2012-10-25 22:47:00
8:15 PM,77.0,71.6,83,29.75,7.0,NNE,12.7,17.3,N/A,,Light Drizzle,30,2012-10-26 00:15:00
8:35 PM,77.0,71.6,83,29.75,7.0,NE,19.6,25.3,N/A,,Light Drizzle,50,2012-10-26 00:35:00
8:55 PM,78.8,69.8,74,29.75,10.0,NE,23.0,29.9,N/A,,Scattered Clouds,50,2012-10-26 00:55:00
9:15 PM,78.8,71.6,78,29.75,7.0,NE,17.3,28.8,N/A,,Scattered Clouds,40,2012-10-26 01:15:00
9:35 PM,78.8,69.8,74,29.74,7.0,NE,16.1,27.6,N/A,,Mostly Cloudy,40,2012-10-26 01:35:00
9:55 PM,78.8,69.8,74,29.74,7.0,NE,20.7,27.6,N/A,,Scattered Clouds,50,2012-10-26 01:55:00
10:15 PM,78.8,68.0,69,29.74,7.0,NE,17.3,31.1,N/A,,Scattered Clouds,50,2012-10-26 02:15:00
10:35 PM,80.6,68.0,65,29.74,7.0,NE,20.7,28.8,N/A,,Clear,40,2012-10-26 02:35:00
10:55 PM,80.6,66.2,61,29.74,7.0,NE,19.6,25.3,N/A,,Scattered Clouds,40,2012-10-26 02:55:00
11:15 PM,80.6,68.0,65,29.73,7.0,NE,21.9,27.6,N/A,,Scattered Clouds,40,2012-10-26 03:15:00
11:35 PM,78.8,69.8,74,29.73,7.0,NE,18.4,29.9,N/A,,Scattered Clouds,50,2012-10-26 03:35:00
11:55 PM,80.6,64.4,58,29.71,10.0,NE,21.9,32.2,N/A,,Scattered Clouds,50,2012-10-26 03:55:00